Location: Audinghen
(50.8518°N, 1.6129°E)
Time: 22:11:02
(UTC+00:00)

Cosmos 2227 Rocket - Pass Details

Date: 07 August 2020
Orbit: 840 x 844 km, 71.0° (Epoch: 23 September)

Event Time Altitude Azimuth Distance (km) Brightness Sun altitude
Exits shadow 01:33:17 31° 169° (SSE) 1,456 3.0 -19.7°
Maximum altitude 01:35:43 50° 111° (ESE) 1,062 2.7 -19.6°
Drops below altitude 10° 01:41:11 10° 38° (NE) 2,473 5.8 -19.2°
Sets 01:43:41 0° 33° (NNE) 3,412 7.0 -19.0°
